Weather reports worldwide

Advertisment
Brive, France (7438): temperature & dewpoint: 20.09.2018 17:00:00 - 26.09.2018 17:00:00 (CEST)Brive, France (7438): temperature 5cm: 20.09.2018 17:00:00 - 26.09.2018 17:00:00 (CEST)Brive, France (7438): temperature -20cm & temperature -100cm: 20.09.2018 17:00:00 - 26.09.2018 17:00:00 (CEST)Brive, France (7438): wind speed & gusts: 20.09.2018 17:00:00 - 26.09.2018 17:00:00 (CEST)Brive, France (7438): wind direction: 20.09.2018 17:00:00 - 26.09.2018 17:00:00 (CEST)Brive, France (7438): reduced air pressure: 20.09.2018 17:00:00 - 26.09.2018 17:00:00 (CEST)Brive, France (7438): visibility: 20.09.2018 17:00:00 - 26.09.2018 17:00:00 (CEST)Brive, France (7438): sunshine duration: 20.09.2018 17:00:00 - 26.09.2018 17:00:00 (CEST)Brive, France (7438): precipitation: 20.09.2018 17:00:00 - 26.09.2018 17:00:00 (CEST)
Date & Time tt [°C] td [°C] tt 5cm [°C] tt -20cm [°C] tt -100cm [°C] ff [km/h] ff [kn] fx [km/h] fx [kn] dd ppp [hPa] vv [km] sd [min] rr [mm]
26.09.2018 17:00:00 27,4 6,2 31,6 20,6 21,3 8 5 50 27 SE 1028,5 20 60 0,0
26.09.2018 16:00:00 27,4 6,7 32,3 20,0 21,3 9 5 26 14 SE 1029,0 20 60 0,0
26.09.2018 15:00:00 26,3 7,3 31,3 19,4 21,4 10 5 28 15 SSE 1029,5 20 60 0,0
26.09.2018 14:00:00 25,6 8,1 30,2 18,9 21,3 11 6 27 15 SSE 1030,1 20 60 0,0
26.09.2018 13:00:00 24,3 9,1 29,3 18,6 21,4 13 7 27 15 SE 1030,9 20 60 0,0
26.09.2018 12:00:00 23,2 10,3 24,6 18,4 21,4 8 4 28 15 SSE 1031,2 20 60 0,0
26.09.2018 11:00:00 17,6 9,0 17,1 18,4 21,4 3 2 6 3 NNE 1031,8 20 60 0,0
26.09.2018 10:00:00 13,2 7,8 12,7 18,6 21,4 2 1 4 2 NE 1032,0 20 60 0,0
26.09.2018 09:00:00 9,5 7,1 6,7 18,8 21,4 0 0 3 2 N 1031,9 16 31 0,0
26.09.2018 08:00:00 7,8 7,0 6,1 19,0 21,4 0 0 3 1 N 1031,5 18 0 0,0
26.09.2018 07:00:00 7,9 7,0 6,4 19,2 21,4 0 0 3 2 N 1030,9 20 0 0,0
26.09.2018 06:00:00 8,0 6,8 6,9 19,5 21,4 0 0 5 3 N 1030,7 20 0 0,0
26.09.2018 05:00:00 8,7 6,7 7,2 19,8 21,5 0 0 7 4 N 1030,4 20 0 0,0
26.09.2018 04:00:00 9,0 6,6 7,4 20,0 21,4 3 1 5 3 SSE 1030,2 20 0 0,0
26.09.2018 03:00:00 9,7 7,0 7,8 20,3 21,4 0 0 4 2 N 1030,1 20 0 0,0
26.09.2018 02:00:00 10,1 7,2 8,1 20,6 21,5 0 0 0 0 N 1029,9 20 0 0,0
26.09.2018 01:00:00 11,1 7,2 9,1 20,8 21,5 0 0 3 2 N 1029,6 20 0 0,0
26.09.2018 00:00:00 12,5 7,6 10,3 21,1 21,5 0 0 4 2 N 1029,3 15 0 0,0
25.09.2018 23:00:00 14,4 7,7 11,7 21,2 21,5 3 1 4 2 SE 1029,0 20 0 0,0
25.09.2018 22:00:00 16,3 7,8 12,7 21,4 21,5 0 0 8 4 N 1028,3 20 0 0,0
25.09.2018 21:00:00 16,9 8,1 14,7 21,4 21,5 5 3 9 5 SSE 1028,0 20 0 0,0
25.09.2018 20:00:00 20,5 7,5 17,1 21,3 21,5 0 0 6 4 N 1026,9 20 24 0,0
25.09.2018 19:00:00 24,4 4,7 26,9 21,1 21,5 3 2 13 7 SW 1026,4 20 60 0,0
25.09.2018 18:00:00 25,0 4,2 28,6 20,6 21,5 6 4 17 9 S 1026,3 20 60 0,0
25.09.2018 17:00:00 24,4 3,1 28,5 20,1 21,6 7 4 21 11 NNE 1026,6 20 60 0,0
25.09.2018 16:00:00 23,7 1,9 29,9 19,5 21,6 6 3 15 8 NNE 1027,0 20 60 0,0
25.09.2018 15:00:00 22,8 2,3 28,1 18,9 21,6 4 2 16 9 NNE 1027,6 20 60 0,0
25.09.2018 14:00:00 21,2 0,9 27,7 18,4 21,6 5 3 16 9 ENE 1028,4 20 60 0,0
25.09.2018 13:00:00 19,6 0,1 26,3 18,1 21,6 4 2 11 6 ENE 1029,1 20 60 0,0
25.09.2018 12:00:00 17,8 1,3 23,4 18,0 21,6 6 3 14 7 NE 1029,5 18 60 0,0
25.09.2018 11:00:00 15,9 0,8 17,2 18,0 21,6 5 3 13 7 E 1029,6 20 60 0,0
25.09.2018 10:00:00 12,8 2,6 11,5 18,2 21,6 0 0 8 4 N 1029,5 20 60 0,0
25.09.2018 09:00:00 8,2 3,2 6,1 18,4 21,6 2 1 6 4 N 1029,6 20 32 0,0
25.09.2018 08:00:00 6,9 3,0 5,5 18,7 21,6 3 2 7 4 NNW 1029,4 20 0 0,0
25.09.2018 07:00:00 8,0 3,1 5,7 19,0 21,6 0 0 11 6 N 1029,2 20 0 0,0
25.09.2018 06:00:00 9,2 2,7 6,7 19,2 21,6 5 3 10 6 N 1029,2 20 0 0,0
25.09.2018 05:00:00 11,1 2,4 9,2 19,5 21,6 5 3 15 8 NNE 1029,6 20 0 0,0
25.09.2018 04:00:00 11,9 2,3 10,1 19,8 21,7 8 5 21 12 NE 1030,0 20 0 0,0
25.09.2018 03:00:00 12,5 2,3 8,9 20,1 21,6 12 6 27 15 NE 1030,0 20 0 0,0
25.09.2018 02:00:00 10,4 4,1 8,5 20,4 21,6 8 4 16 9 N 1030,7 20 0 0,0
25.09.2018 01:00:00 11,3 4,5 8,5 20,7 21,7 6 3 14 8 NNE 1030,8 20 0 0,0
25.09.2018 00:00:00 12,1 4,8 9,6 21,0 21,7 6 3 10 5 N 1030,8 20 0 0,0
24.09.2018 23:00:00 13,5 4,6 12,2 21,3 21,7 7 4 18 10 NNE 1030,6 20 0 0,0
24.09.2018 22:00:00 14,0 5,1 12,7 21,5 21,7 9 5 18 10 NNE 1030,4 20 0 0,0
24.09.2018 21:00:00 15,1 4,7 13,7 21,6 21,7 8 4 19 10 NNE 1030,2 20 0 0,0
24.09.2018 20:00:00 16,8 4,1 15,5 21,7 21,7 10 6 31 17 NE 1029,8 20 26 0,0
24.09.2018 19:00:00 18,4 2,6 20,2 21,6 21,7 19 10 35 19 NNE 1029,4 20 60 0,0
24.09.2018 18:00:00 19,6 2,4 23,3 21,4 21,7 16 9 33 18 ENE 1028,9 20 60 0,0
24.09.2018 17:00:00 20,1 3,3 23,9 21,0 21,7 18 10 40 21 NE 1029,0 20 60 0,0
24.09.2018 16:00:00 20,1 3,7 26,3 20,6 21,7 16 9 37 20 ENE 1029,2 20 60 0,0
24.09.2018 15:00:00 19,7 4,2 24,3 20,3 21,7 12 7 37 20 N 1029,1 20 60 0,0
24.09.2018 14:00:00 18,4 3,8 23,7 20,0 21,7 16 9 36 19 N 1029,5 20 60 0,0
24.09.2018 13:00:00 17,4 4,3 21,0 19,9 21,7 14 8 32 17 NE 1030,3 20 60 0,0
24.09.2018 12:00:00 16,3 4,0 21,1 19,9 21,7 18 10 31 17 NE 1030,6 20 60 0,0
24.09.2018 11:00:00 15,8 4,5 16,5 20,1 21,7 16 9 36 19 ENE 1030,2 20 60 0,0
24.09.2018 10:00:00 14,2 5,3 13,7 20,3 21,7 14 8 21 12 NE 1029,6 20 60 0,0
24.09.2018 09:00:00 12,1 8,4 10,1 20,6 21,7 6 3 16 8 NNE 1029,3 20 46 0,0
24.09.2018 08:00:00 10,8 8,9 9,4 20,9 21,7 3 2 10 5 NNW 1028,7 20 0 0,0
24.09.2018 07:00:00 11,6 8,6 10,1 21,2 21,7 4 2 15 8 NNE 1027,9 20 0 0,0
24.09.2018 06:00:00 12,5 8,8 11,6 21,5 21,8 8 5 23 12 NNE 1027,5 20 0 0,0
24.09.2018 05:00:00 13,3 9,5 12,5 21,8 21,8 9 5 22 12 N 1027,0 20 0 0,0
24.09.2018 04:00:00 14,1 10,5 13,4 22,0 21,8 9 5 29 16 N 1026,4 20 0 0,0
24.09.2018 03:00:00 15,5 11,3 14,8 22,2 21,8 16 8 31 17 NNE 1026,3 20 0 0,0
24.09.2018 02:00:00 17,2 12,9 16,0 22,4 21,8 14 8 29 16 NE 1026,0 20 0 0,0
24.09.2018 01:00:00 17,4 14,5 16,1 22,6 21,8 5 3 38 21 N 1025,4 20 0 0,0
24.09.2018 00:00:00 19,4 16,8 18,0 22,6 21,8 13 7 37 20 NNW 1024,5 20 0 0,0
23.09.2018 23:00:00 19,8 19,0 19,0 22,7 21,8 11 6 29 16 WNW 1023,6 4,5 0 0,8
23.09.2018 22:00:00 21,8 17,8 21,7 22,8 21,8 13 7 28 15 W 1023,0 20 0 0,0
23.09.2018 21:00:00 22,2 17,8 21,8 22,8 21,8 8 4 26 14 WNW 1022,7 20 0 0,0
23.09.2018 20:00:00 23,2 17,4 22,8 22,7 21,8 15 8 33 18 WNW 1022,3 20 0 0,0
23.09.2018 19:00:00 25,3 17,0 25,4 22,6 21,9 13 7 31 17 NW 1021,6 20 7 0,0
23.09.2018 18:00:00 26,8 16,1 27,2 22,2 21,9 13 7 28 15 WNW 1020,7 20 20 0,0
23.09.2018 17:00:00 27,0 16,3 27,4 21,8 21,8 8 5 24 13 W 1020,9 20 12 0,0
23.09.2018 16:00:00 26,6 15,6 28,1 21,2 21,9 11 6 25 13 WNW 1021,2 20 51 0,0
23.09.2018 15:00:00 26,0 15,7 29,2 20,7 21,9 7 4 22 12 W 1021,3 20 53 0,0
23.09.2018 14:00:00 25,0 15,3 29,0 20,3 21,9 9 5 21 11 W 1022,3 20 52 0,0
23.09.2018 13:00:00 23,4 15,4 24,7 20,1 21,9 5 3 15 8 W 1023,0 20 24 0,0
23.09.2018 12:00:00 22,1 15,2 21,9 19,9 21,9 5 3 13 7 WNW 1023,3 20 14 0,0
23.09.2018 11:00:00 18,4 13,3 17,9 19,9 21,9 4 2 8 5 E 1023,9 20 0 0,0
23.09.2018 10:00:00 16,2 12,4 16,2 20,0 21,9 3 1 5 3 NNE 1024,2 20 0 0,0
23.09.2018 09:00:00 14,3 12,5 13,6 20,1 21,9 2 1 5 3 SE 1023,9 20 0 0,0
23.09.2018 08:00:00 13,0 12,4 12,7 20,3 21,9 0 0 3 2 N 1024,2 20 0 0,0
23.09.2018 07:00:00 12,5 11,9 11,1 20,5 21,9 2 1 4 2 N 1024,2 20 0 0,0
23.09.2018 06:00:00 11,7 11,4 11,0 20,7 21,9 0 0 4 2 N 1024,1 20 0 0,0
23.09.2018 05:00:00 11,9 11,4 11,4 20,9 21,9 3 1 4 2 ESE 1024,1 20 0 0,0
23.09.2018 04:00:00 12,7 12,1 11,8 21,1 21,9 0 0 5 3 N 1024,2 20 0 0,0
23.09.2018 03:00:00 13,2 12,3 12,3 21,4 21,9 2 1 4 2 NNE 1024,6 20 0 0,0
23.09.2018 02:00:00 13,6 12,0 12,7 21,6 21,9 0 0 3 2 N 1024,7 20 0 0,0
23.09.2018 01:00:00 14,0 11,2 12,7 21,8 21,9 0 0 3 2 N 1024,8 20 0 0,0
23.09.2018 00:00:00 14,6 10,8 13,8 22,1 22,0 3 2 7 4 SSE 1024,7 20 0 0,0
22.09.2018 23:00:00 15,4 10,8 14,5 22,3 21,9 4 2 9 5 SE 1024,6 20 0 0,0
22.09.2018 22:00:00 16,1 10,6 15,3 22,4 22,0 4 2 10 6 SE 1024,4 20 0 0,0
22.09.2018 21:00:00 17,9 11,5 16,2 22,5 21,9 2 1 6 3 S 1023,9 20 0 0,0
22.09.2018 20:00:00 21,3 8,9 20,1 22,5 22,0 3 2 11 6 WSW 1023,3 20 30 0,0
22.09.2018 19:00:00 23,1 6,8 24,7 22,4 22,0 7 4 16 9 NW 1022,9 20 60 0,0
22.09.2018 18:00:00 23,9 5,7 27,4 22,2 22,0 5 3 16 8 NW 1022,8 20 60 0,0
22.09.2018 17:00:00 23,6 8,1 27,5 21,7 22,0 7 4 13 7 NW 1022,9 20 60 0,0
22.09.2018 16:00:00 22,3 10,8 27,4 21,3 22,0 4 2 14 8 N 1023,5 20 60 0,0
22.09.2018 15:00:00 21,0 11,9 25,7 20,9 22,0 4 2 10 6 NNE 1024,0 19 60 0,0
22.09.2018 14:00:00 19,0 12,5 23,0 20,7 22,0 4 2 11 6 NW 1024,5 20 58 0,0
22.09.2018 13:00:00 16,5 12,8 17,5 20,6 22,0 5 3 13 7 WSW 1025,0 20 2 0,0
22.09.2018 12:00:00 15,2 13,4 15,6 20,6 22,0 3 2 12 7 SSE 1025,6 20 0 0,0
22.09.2018 11:00:00 13,9 12,9 14,3 20,7 22,0 5 3 10 6 ESE 1025,7 20 0 0,0
22.09.2018 10:00:00 13,3 12,7 13,8 20,8 22,0 5 3 11 6 ESE 1025,6 20 0 0,0
22.09.2018 09:00:00 13,2 12,9 13,0 20,9 22,0 5 3 9 5 E 1025,3 18 0 0,0
22.09.2018 08:00:00 13,1 13,1 13,0 21,1 22,0 5 3 12 7 SSE 1024,9 12 0 0,0
22.09.2018 07:00:00 13,5 13,5 13,5 21,2 22,0 7 4 9 5 ESE 1024,8 13 0 0,0
22.09.2018 06:00:00 13,3 13,3 13,4 21,4 22,0 5 3 9 5 NNE 1024,9 14 0 0,0
22.09.2018 05:00:00 13,6 13,6 13,9 21,5 22,0 4 2 11 6 ENE 1024,4 7 0 0,0
22.09.2018 04:00:00 14,2 14,2 14,3 21,7 22,0 3 2 4 2 WNW 1024,6 1,1 0 0,0
22.09.2018 03:00:00 14,4 14,4 14,0 21,8 22,0 2 1 4 2 WNW 1025,3 0,5 0 0,0
22.09.2018 02:00:00 14,6 14,6 14,7 22,0 22,0 2 1 5 3 W 1025,0 12 0 0,0
22.09.2018 01:00:00 14,6 14,6 14,5 22,2 22,0 2 1 6 3 W 1025,1 13 0 0,0
22.09.2018 00:00:00 14,6 14,6 14,5 22,4 22,0 0 0 4 2 N 1025,2 1,8 0 0,0
21.09.2018 23:00:00 14,6 14,6 13,7 22,6 22,0 0 0 5 3 N 1024,7 20 0 0,0
21.09.2018 22:00:00 15,1 14,9 14,4 22,8 22,0 0 0 4 2 N 1024,0 20 0 0,0
21.09.2018 21:00:00 15,6 15,1 15,0 23,0 22,0 2 1 5 3 SSW 1023,6 20 0 0,0
21.09.2018 20:00:00 16,0 15,2 15,4 23,2 22,0 3 1 7 4 W 1023,2 20 0 0,0
21.09.2018 19:00:00 16,1 15,3 15,8 23,3 22,0 3 2 6 4 W 1022,6 20 0 0,2
21.09.2018 18:00:00 15,9 15,1 15,6 23,4 22,0 2 1 14 7 W 1022,2 12 0 0,8
21.09.2018 17:00:00 16,0 15,4 15,8 23,5 22,0 5 3 24 13 NW 1022,0 4,0 0 1,2
21.09.2018 16:00:00 17,3 15,5 16,3 23,4 22,0 11 6 37 20 N 1020,9 16 0 2,9
21.09.2018 15:00:00 22,5 17,0 20,7 23,4 22,0 16 9 37 20 W 1019,4 14 4 0,2
21.09.2018 14:00:00 22,8 16,3 23,0 23,3 21,9 13 7 24 13 WSW 1019,0 20 0 0,0
21.09.2018 13:00:00 21,9 16,0 22,9 23,2 22,0 11 6 27 14 W 1019,6 20 0 0,0
21.09.2018 12:00:00 21,5 16,0 22,7 23,2 22,0 9 5 16 9 W 1019,5 20 0 0,0
21.09.2018 11:00:00 20,7 16,3 22,2 23,2 21,9 7 4 17 9 W 1019,2 20 1 0,0
21.09.2018 10:00:00 19,1 16,7 19,2 23,3 21,9 2 1 5 3 WSW 1019,0 20 0 0,0
21.09.2018 09:00:00 17,6 16,1 17,2 23,5 21,9 0 0 5 3 N 1018,5 19 6 0,0
21.09.2018 08:00:00 16,6 15,8 15,8 23,7 22,0 0 0 6 3 N 1018,1 16 0 0,0
21.09.2018 07:00:00 16,2 15,7 14,6 24,0 21,9 2 1 5 3 S 1017,0 19 0 0,0
21.09.2018 06:00:00 16,3 15,3 15,2 24,2 21,9 0 0 3 1 N 1016,6 20 0 0,0
21.09.2018 05:00:00 16,6 15,6 15,0 24,5 21,9 0 0 5 3 N 1016,4 20 0 0,0
21.09.2018 04:00:00 17,1 16,0 16,1 24,7 21,9 4 2 15 8 NW 1016,5 20 0 0,0
21.09.2018 03:00:00 17,0 15,2 15,4 25,0 21,9 4 2 6 4 WNW 1015,9 20 0 0,0
21.09.2018 02:00:00 17,8 15,1 15,8 25,3 21,9 0 0 4 2 N 1015,5 20 0 0,0
21.09.2018 01:00:00 17,9 14,4 16,0 25,6 21,9 0 0 4 2 N 1015,4 20 0 0,0
21.09.2018 00:00:00 19,1 14,6 17,1 25,8 21,9 0 0 4 2 N 1015,9 20 0 0,0
20.09.2018 23:00:00 20,6 14,7 18,9 26,0 21,9 3 1 6 3 S 1015,7 20 0 0,0
20.09.2018 22:00:00 21,9 14,8 20,5 26,2 21,9 4 2 10 5 SSE 1015,6 20 0 0,0
20.09.2018 21:00:00 24,1 15,3 22,0 26,2 21,9 4 2 8 4 ESE 1015,3 20 0 0,0
20.09.2018 20:00:00 28,7 14,1 27,0 26,1 21,9 4 2 13 7 SW 1015,0 20 34 0,0
20.09.2018 19:00:00 31,3 12,6 32,3 25,9 21,9 7 4 16 9 W 1015,0 20 60 0,0
20.09.2018 18:00:00 32,1 10,7 35,5 25,5 21,9 10 5 19 10 W 1015,2 20 60 0,0
20.09.2018 17:00:00 32,3 11,5 36,5 24,9 21,9 9 5 22 12 WSW 1015,8 20 60 0,0

tt = temperature
td = dewpoint
tt 5cm = temperature 5cm
tt -20cm = temperature -20cm
tt -100cm = temperature -100cm
ff = wind speed
fx = gusts
dd = wind direction
ppp = reduced air pressure
vv = visibility
sd = sunshine duration
rr = precipitation

Next stations